Weather History for Jaffrey, NH

Change the Weather History Date:

Monday, October 8, 2012

  Actual Average Record
Temperature  
Mean Temperature 46 °F -  
Max Temperature 55 °F 59 °F 77 °F (2011)
Min Temperature 37 °F 38 °F 27 °F (1999)
Degree Days  
Heating Degree Days 20    
Moisture  
Dew Point 38 °F    
Average Humidity 77    
Maximum Humidity 93    
Minimum Humidity 51    
Precipitation  
Precipitation 0.01 in - - ()
Sea Level Pressure  
Sea Level Pressure 30.19 in    
Wind  
Wind Speed 1 mph (SW)    
Max Wind Speed 5 mph    
Max Gust Speed -    
Visibility 8 miles    
Events Fog , Rain    
Averages and records for this station are not official NWS values.
T = Trace of Precipitation, MM = Missing Value Source: NWS Daily Summary

Daily Weather History Graph

Daily Weather History Graph

Search for Another Location

Airport:

Trip Planner

Search our weather history database for the weather conditions in past years. The results will help you decide how hot, cold, wet, or windy it might be!

Date:

Astronomy

Oct. 08, 2012 Rise Set
Actual Time 6:53 AM EDT 6:16 PM EDT
Civil Twilight 6:25 AM EDT 6:44 PM EDT
Nautical Twilight 5:52 AM EDT 7:17 PM EDT
Astronomical Twilight 5:19 AM EDT 7:50 PM EDT
Moon No Moon Rise 2:12 PM EDT (10/8)
Length of Visible Light 12h 19m
Length of Day
11h 22m
Waning Gibbous, 46% of the Moon is Illuminated
Oct 8
Waning Gibbous
Oct 15
New
Oct 21
First Quarter
Oct 29
Full
Nov 6
Last Quarter

Hourly Weather History & Observations

Time (EDT) Temp. Windchill Dew Point Humidity Pressure Visibility Wind Dir Wind Speed Gust Speed Precip Events Conditions
12:26 AM 46.4 °F - 41.0 °F 81% 30.07 in 10.0 mi Calm Calm - 0.01 in Rain Light Rain
12:48 AM 46.4 °F - 39.2 °F 76% 30.08 in 10.0 mi Calm Calm - 0.01 in Rain Light Rain
12:52 AM 46.0 °F - 39.9 °F 79% 30.10 in 10.0 mi Calm Calm - 0.01 in Rain Light Rain
1:13 AM 44.6 °F - 39.2 °F 81% 30.07 in 10.0 mi Calm Calm - 0.00 in Rain Light Rain
1:45 AM 44.6 °F - 39.2 °F 81% 30.09 in 10.0 mi Calm Calm - 0.00 in   Partly Cloudy
1:52 AM 43.0 °F - 39.0 °F 86% 30.12 in 10.0 mi Calm Calm - 0.00 in   Partly Cloudy
2:42 AM 41.0 °F - 37.4 °F 87% 30.06 in 10.0 mi Calm Calm - N/A   Partly Cloudy
2:52 AM 41.0 °F - 36.0 °F 82% 30.10 in 9.0 mi Calm Calm - N/A   Partly Cloudy
3:33 AM 39.2 °F - 35.6 °F 87% 30.08 in 10.0 mi Calm Calm - N/A   Mostly Cloudy
3:52 AM 39.9 °F - 36.0 °F 86% 30.12 in 10.0 mi Calm Calm - N/A   Overcast
4:06 AM 39.2 °F 37.0 °F 37.4 °F 93% 30.09 in 1.8 mi South 3.5 mph - N/A   Overcast
4:13 AM 41.0 °F 39.0 °F 37.4 °F 87% 30.10 in 2.5 mi SW 3.5 mph - N/A   Overcast
4:15 AM 41.0 °F 39.0 °F 37.4 °F 87% 30.10 in 4.0 mi SW 3.5 mph - N/A   Overcast
4:34 AM 42.8 °F - 37.4 °F 81% 30.10 in 10.0 mi Calm Calm - N/A   Mostly Cloudy
4:52 AM 42.1 °F - 37.9 °F 85% 30.14 in 7.0 mi Calm Calm - N/A   Overcast
5:37 AM 42.8 °F - 37.4 °F 81% 30.12 in 10.0 mi Calm Calm - N/A   Overcast
5:52 AM 41.0 °F - 37.0 °F 86% 30.14 in 9.0 mi Calm Calm - N/A   Mostly Cloudy
6:52 AM 39.0 °F - 35.1 °F 86% 30.16 in 10.0 mi Calm Calm - N/A   Clear
7:26 AM 37.4 °F - 33.8 °F 87% 30.15 in 10.0 mi Calm Calm - N/A   Partly Cloudy
7:41 AM 39.2 °F - 35.6 °F 87% 30.16 in 1.5 mi Calm Calm - N/A   Mostly Cloudy
7:43 AM 39.2 °F - 35.6 °F 87% 30.17 in 0.8 mi Calm Calm - N/A   Mist
7:52 AM 41.0 °F - 37.0 °F 86% 30.21 in 0.2 mi Calm Calm - N/A Fog Fog
8:06 AM 42.8 °F - 37.4 °F 81% 30.17 in 1.2 mi Calm Calm - N/A   Overcast
8:08 AM 42.8 °F - 37.4 °F 81% 30.18 in 2.5 mi Calm Calm - N/A   Overcast
8:30 AM 42.8 °F - 39.2 °F 87% 30.20 in 10.0 mi Calm Calm - N/A   Mostly Cloudy
8:41 AM 42.8 °F - 39.2 °F 87% 30.20 in 10.0 mi Calm Calm - N/A   Scattered Clouds
8:52 AM 45.0 °F - 39.9 °F 82% 30.23 in 10.0 mi Calm Calm - N/A   Clear
9:52 AM 48.9 °F - 39.0 °F 69% 30.24 in 10.0 mi Calm Calm - N/A   Mostly Cloudy
10:15 AM 48.2 °F - 39.2 °F 71% 30.21 in 10.0 mi Calm Calm - N/A   Scattered Clouds
10:26 AM 48.2 °F - 39.2 °F 71% 30.21 in 10.0 mi Calm Calm - N/A   Mostly Cloudy
10:52 AM 50.0 °F - 37.0 °F 61% 30.25 in 10.0 mi Calm Calm - N/A   Overcast
11:52 AM 50.0 °F - 37.0 °F 61% 30.27 in 10.0 mi WNW 4.6 mph - N/A   Overcast
12:52 PM 50.0 °F - 37.0 °F 61% 30.27 in 10.0 mi NW 4.6 mph - N/A   Overcast
1:24 PM 51.8 °F - 35.6 °F 54% 30.23 in 10.0 mi Variable 4.6 mph - N/A   Overcast
1:34 PM 51.8 °F - 37.4 °F 58% 30.23 in 10.0 mi Calm Calm - N/A   Overcast
1:52 PM 51.1 °F - 36.0 °F 56% 30.27 in 10.0 mi Calm Calm - N/A   Mostly Cloudy
2:52 PM 53.1 °F - 37.0 °F 55% 30.28 in 10.0 mi Calm Calm - N/A   Mostly Cloudy
3:52 PM 54.0 °F - 36.0 °F 51% 30.28 in 10.0 mi South 3.5 mph - N/A   Clear
4:52 PM 53.1 °F - 37.0 °F 55% 30.27 in 10.0 mi South 4.6 mph - N/A   Clear
5:52 PM 51.1 °F - 39.0 °F 63% 30.29 in 10.0 mi Calm Calm - N/A   Clear
6:52 PM 46.9 °F - 39.9 °F 77% 30.32 in 10.0 mi Calm Calm - N/A   Mostly Cloudy
7:52 PM 46.9 °F - 39.9 °F 77% 30.32 in 10.0 mi Calm Calm - N/A   Clear
8:52 PM 44.1 °F - 39.9 °F 85% 30.33 in 10.0 mi Calm Calm - N/A   Clear
9:52 PM 44.1 °F - 39.0 °F 82% 30.33 in 10.0 mi Calm Calm - N/A   Clear
10:52 PM 41.0 °F - 37.0 °F 86% 30.35 in 10.0 mi Calm Calm - N/A   Clear
11:52 PM 41.0 °F - 37.0 °F 86% 30.34 in 9.0 mi Calm Calm - N/A   Clear